Tracking 32963 objects as of 21-Jan-2026
HD Live streaming from Space Station
objects crossing your sky now

STARLINK-36043

Track STARLINK-36043 now!
10-day predictions
STARLINK-36043 is classified as:


NORAD ID: 66901
Int'l Code: 2025-283Z
Perigee: 481.5 km
Apogee: 483.4 km
Inclination: 53.2 °
Period: 94.1 minutes
Semi major axis: 6853 km
RCS: Unknown
Launch date: December 4, 2025
Source: United States (US)
Launch site: AIR FORCE WESTERN TEST RANGE (AFWTR)
Your satellite tracking list
Your tracking list is empty




NASA's NSSDC Master Catalog

Two Line Element Set (TLE):
1 66901U 25283Z   26021.33735296  .00030546  00000-0  10403-2 0  9999
2 66901  53.1581 244.1538 0001383  59.5117 300.6020 15.30167002  8595
Source of the keplerian elements: AFSPC